SATMAR (64551 NORAD) Tracking and Keplerian Element Data

This shows tracking and keplerian element data for the satellite.

Feedback or suggestion? Click here.




ElementValue
Catalog64551
NameSATMAR
Epoch Orbit2765
Epoch Day354.0613017
Epoch Year2025
RAAN106.0602
Inclination97.4496
Eccentricity0.0001959
Argument of Perigee126.602
Mean Anonmoly233.5396
Mean Motion15.21478406
Decay Rate6.455E-05
L11 64551U 25135Z 25354.06130170 .00006455 00000+0 29012-3 0 9990
L22 64551 97.4496 106.0602 0001959 126.6020 233.5396 15.21478406 27657



Live tracking and technical data element details for SATMAR (NORAD 64551). SATMAR can be tracked NOW for your location showing map with azimuth and elevation plus other details from your city location.







IsCatalogInMostPopularTable: catalog: 64551, numindb: 4
Update: records affected: 1



GetName: 64551 SATMAR

Hit Count: updated at: Mon, 20 Apr 2026 09:23:58 GMT